sat.trackr.live / text

‹ back to catalog

IRIDE FM6

NORAD 66700 · 2025-276AL

PAYLOAD ACTIVE UNKNOWN

§ Identity

Operator
Country
IT
Launch date
2025-11-28
Launch site
AFWTR
Launch vehicle
Mass (kg)
RCS (m²)

External: N2YO · Heavens-Above · Gunter

§ Orbital elements

Epoch: 2026-05-25T02:30:57.254112Z

Period
94.68 min
Inclination
97.4221°
Eccentricity
0.0002622
Mean motion
15.20898012 rev/d
Perigee alt
501.3 km
Apogee alt
504.9 km
Semi-major
6,881.3 km
B*
2.1657e-4
RAAN
219.3477°
Arg perigee
73.7670°
Mean anomaly
286.3854°
Rev number
2,693

§ Raw data

IRIDE FM61 66700U 25276AL  26145.10482933  .00004719  00000+0  21657-3 0  99932 66700  97.4221 219.3477 0002622  73.7670 286.3854 15.20898012 26933

JSON: /api/v1/satellites/66700 · /tle

For live sub-satellite position, see the globe view (requires WebGL).

§ Visibility from observer

Set your observer location to see the next 7 days of passes ≥ 10°. The values pass through the URL so the page stays shareable.

No JS? Fill the form by hand. The geolocation button needs JavaScript.